Stations météo

Publicité
Abbeville, France (7005): Température de l'air & dewpoint: 19.05.2017 08:00:00 - 25.05.2017 08:00:00 (CEST)Abbeville, France (7005): Température de l'air 5cm: 19.05.2017 08:00:00 - 25.05.2017 08:00:00 (CEST)Abbeville, France (7005): Température de l'air -20cm & Température de l'air -100cm: 19.05.2017 08:00:00 - 25.05.2017 08:00:00 (CEST)Abbeville, France (7005): Vitesse du vent & gusts: 19.05.2017 08:00:00 - 25.05.2017 08:00:00 (CEST)Abbeville, France (7005): Direction du vent: 19.05.2017 08:00:00 - 25.05.2017 08:00:00 (CEST)Abbeville, France (7005): reduced air pressure: 19.05.2017 08:00:00 - 25.05.2017 08:00:00 (CEST)Abbeville, France (7005): visibility: 19.05.2017 08:00:00 - 25.05.2017 08:00:00 (CEST)Abbeville, France (7005): Ensoleillement: 19.05.2017 08:00:00 - 25.05.2017 08:00:00 (CEST)Abbeville, France (7005): Quantités de précipitations: 19.05.2017 08:00:00 - 25.05.2017 08:00:00 (CEST)
Date & Time tt [°C] td [°C] tt 5cm [°C] tt -20cm [°C] tt -100cm [°C] ff [km/h] ff [knt] fx [km/h] fx [knt] dd ppp [hPa] vv [km] sd [min] rr [mm]
25.05.2017 08:00:00 14,4 12,8 13,2 16,4 12,8 5 3 8 4 ENE 1025,0 4,0 26 0,0
25.05.2017 07:00:00 12,2 11,6 9,1 16,5 12,7 3 2 5 3 SE 1024,7 3,0 38 0,0
25.05.2017 06:00:00 11,4 10,6 7,9 16,8 12,8 4 2 6 3 NE 1024,6 2,5 0 0,0
25.05.2017 05:00:00 11,9 11,0 9,5 16,9 12,7 2 1 7 4 E 1024,4 5 0 0,0
25.05.2017 04:00:00 11,9 11,0 9,6 17,1 12,7 5 3 8 4 E 1024,8 7 0 0,0
25.05.2017 03:00:00 12,5 11,7 9,6 17,2 12,7 0 0 7 4 N 1025,2 6 0 0,0
25.05.2017 02:00:00 12,8 11,9 9,7 17,4 12,7 0 0 3 2 N 1025,4 3,1 0 0,0
25.05.2017 01:00:00 13,2 12,3 10,6 17,5 12,7 4 2 6 3 NNW 1025,7 5 0 0,0
25.05.2017 00:00:00 13,7 12,4 12,3 17,7 12,7 5 3 10 5 NW 1025,8 7 0 0,0
24.05.2017 23:00:00 14,5 13,0 13,5 17,7 12,7 7 4 14 7 WNW 1026,0 9 0 0,0
24.05.2017 22:00:00 15,7 13,5 14,9 17,8 12,7 10 5 18 10 WNW 1025,7 16 16 0,0
24.05.2017 21:00:00 17,6 13,3 17,8 17,7 12,7 11 6 19 10 WNW 1025,5 20 60 0,0
24.05.2017 20:00:00 18,8 14,1 21,4 17,7 12,7 13 7 22 12 W 1025,3 20 60 0,0
24.05.2017 19:00:00 19,9 14,3 24,3 17,5 12,7 13 7 24 13 WNW 1025,4 20 60 0,0
24.05.2017 18:00:00 20,0 14,1 26,2 17,3 12,7 17 9 24 13 NW 1025,7 20 60 0,0
24.05.2017 17:00:00 19,7 13,6 26,3 17,0 12,6 18 10 30 16 WNW 1025,9 30 60 0,0
24.05.2017 16:00:00 19,6 14,0 26,4 16,7 12,6 21 11 29 16 WNW 1026,2 30 60 0,0
24.05.2017 15:00:00 19,3 13,7 27,1 16,5 12,6 19 11 27 15 WNW 1026,4 30 60 0,0
24.05.2017 14:00:00 19,4 14,9 25,1 16,2 12,6 17 9 23 13 WNW 1026,5 25 40 0,0
24.05.2017 13:00:00 19,0 14,9 25,1 16,1 12,6 10 6 18 10 WNW 1026,7 18 39 0,0
24.05.2017 12:00:00 17,8 14,7 21,9 16,1 12,6 6 4 15 8 W 1026,8 13 15 0,0
24.05.2017 11:00:00 15,8 14,0 17,6 16,0 12,6 9 5 17 9 NW 1026,9 9 0 0,0
24.05.2017 10:00:00 14,9 13,6 16,3 16,0 12,6 11 6 16 9 WNW 1026,9 8 0 0,0
24.05.2017 09:00:00 14,3 13,5 15,4 16,1 12,6 11 6 16 9 W 1026,5 6 0 0,0
24.05.2017 08:00:00 13,9 13,4 14,4 16,2 12,6 10 5 14 8 W 1026,0 3,5 3 0,0
24.05.2017 07:00:00 13,5 13,2 13,8 16,2 12,6 8 4 13 7 W 1025,7 1,3 0 0,0
24.05.2017 06:00:00 13,3 13,0 13,6 16,3 12,6 5 3 15 8 W 1025,3 1,2 0 0,0
24.05.2017 05:00:00 13,2 12,7 13,5 16,4 12,6 9 5 16 8 W 1025,2 0,9 0 0,0
24.05.2017 04:00:00 13,2 12,7 13,5 16,5 12,6 10 5 16 8 W 1025,3 2,6 0 0,0
24.05.2017 03:00:00 13,2 12,7 13,6 16,6 12,6 12 6 19 10 W 1025,4 2,2 0 0,0
24.05.2017 02:00:00 13,7 13,2 14,1 16,7 12,6 12 7 16 9 W 1025,6 1,3 0 0,0
24.05.2017 01:00:00 13,9 13,4 14,2 16,8 12,5 7 4 18 10 W 1025,4 2,9 0 0,0
24.05.2017 00:00:00 14,0 13,5 14,2 16,9 12,5 12 7 18 10 W 1025,5 1,0 0 0,0
23.05.2017 23:00:00 13,8 13,2 14,2 17,0 12,5 11 6 22 12 W 1025,5 1,2 0 0,0
23.05.2017 22:00:00 14,2 12,9 14,6 17,0 12,5 14 8 24 13 W 1025,2 10 0 0,0
23.05.2017 21:00:00 14,9 13,3 15,4 17,0 12,5 17 9 27 14 WNW 1024,8 20 0 0,0
23.05.2017 20:00:00 15,8 13,3 16,8 17,0 12,5 18 10 27 15 W 1024,5 20 12 0,0
23.05.2017 19:00:00 17,0 12,9 19,8 16,9 12,5 17 9 30 16 W 1023,8 20 52 0,0
23.05.2017 18:00:00 17,6 10,9 21,2 16,8 12,5 21 11 32 17 W 1024,1 20 57 0,0
23.05.2017 17:00:00 17,3 11,6 20,8 16,6 12,5 19 11 30 16 W 1023,9 35 40 0,0
23.05.2017 16:00:00 16,6 11,7 20,2 16,4 12,5 20 11 31 17 W 1023,9 30 7 0,0
23.05.2017 15:00:00 17,9 12,1 24,0 16,1 12,5 22 12 31 17 WNW 1023,8 30 60 0,0
23.05.2017 14:00:00 18,2 13,5 21,9 16,0 12,5 16 9 27 15 W 1023,1 30 57 0,0
23.05.2017 13:00:00 17,0 12,9 20,1 15,8 12,5 18 10 29 16 W 1023,0 30 41 0,0
23.05.2017 12:00:00 16,1 12,5 19,5 15,7 12,5 20 11 29 16 W 1023,2 30 27 0,0
23.05.2017 11:00:00 15,7 12,1 21,1 15,7 12,5 17 9 30 16 W 1022,1 30 57 0,0
23.05.2017 10:00:00 14,9 11,5 18,3 15,7 12,4 23 13 35 19 WNW 1021,5 30 60 0,0
23.05.2017 09:00:00 14,3 11,6 15,7 15,9 12,5 24 13 35 19 WNW 1020,5 20 47 0,0
23.05.2017 08:00:00 13,7 11,6 14,5 16,0 12,5 22 12 33 18 W 1020,1 20 20 0,0
23.05.2017 07:00:00 13,1 11,5 13,1 16,1 12,4 14 8 28 15 W 1019,5 15 36 0,0
23.05.2017 06:00:00 13,0 11,7 13,0 16,2 12,4 16 9 30 16 W 1018,8 8 0 0,0
23.05.2017 05:00:00 13,4 12,3 13,5 16,4 12,5 22 12 34 18 W 1018,3 10 0 0,0
23.05.2017 04:00:00 13,3 12,0 13,2 16,5 12,4 22 12 36 19 W 1018,1 9 0 0,0
23.05.2017 03:00:00 13,5 11,0 13,2 16,6 12,4 13 7 21 12 W 1017,6 15 0 0,0
23.05.2017 02:00:00 14,4 11,0 14,1 16,7 12,4 16 9 33 18 W 1017,2 20 0 0,0
23.05.2017 01:00:00 16,3 11,0 14,6 16,9 12,4 8 4 10 5 SW 1016,5 20 0 0,0
23.05.2017 00:00:00 17,0 11,7 14,0 16,9 12,4 4 2 9 5 WSW 1016,3 20 0 0,0
22.05.2017 23:00:00 18,0 13,1 16,3 17,0 12,4 8 4 12 6 W 1016,4 20 0 0,0
22.05.2017 22:00:00 19,5 12,5 16,6 17,0 12,4 6 3 11 6 W 1015,7 20 0 0,0
22.05.2017 21:00:00 21,7 11,4 19,2 16,9 12,4 4 2 9 5 SW 1015,1 20 5 0,0
22.05.2017 20:00:00 23,3 12,0 25,3 16,8 12,4 5 3 17 9 S 1014,8 20 60 0,0
22.05.2017 19:00:00 23,5 12,2 26,9 16,5 12,4 10 6 21 12 SSE 1015,0 20 54 0,0
22.05.2017 18:00:00 24,3 11,6 26,6 16,3 12,4 6 4 20 11 SSW 1015,2 20 47 0,0
22.05.2017 17:00:00 22,8 10,6 26,3 16,0 12,4 9 5 27 14 S 1015,8 45 46 0,0
22.05.2017 16:00:00 22,8 10,9 25,9 15,7 12,4 11 6 23 13 SE 1016,0 45 43 0,0
22.05.2017 15:00:00 22,5 10,0 25,3 15,3 12,3 13 7 25 14 SE 1016,4 45 49 0,0
22.05.2017 14:00:00 22,0 10,2 24,7 15,0 12,4 10 5 26 14 SE 1016,6 45 34 0,0
22.05.2017 13:00:00 21,6 10,1 27,2 14,7 12,4 15 8 24 13 SE 1016,8 40 60 0,0
22.05.2017 12:00:00 21,1 10,3 28,7 14,5 12,4 10 6 17 9 SE 1017,5 40 60 0,0
22.05.2017 11:00:00 19,7 11,7 24,1 14,4 12,4 6 3 15 8 S 1017,7 40 60 0,0
22.05.2017 10:00:00 18,0 10,1 19,7 14,4 12,4 12 6 21 11 ESE 1017,6 30 60 0,0
22.05.2017 09:00:00 15,5 9,2 15,4 14,5 12,4 12 7 20 11 ESE 1018,0 30 60 0,0
22.05.2017 08:00:00 12,8 8,9 13,4 14,6 12,4 8 4 11 6 E 1018,3 30 13 0,0
22.05.2017 07:00:00 11,3 8,0 9,6 14,7 12,3 6 3 10 6 ESE 1018,5 30 19 0,0
22.05.2017 06:00:00 10,7 7,4 9,8 14,9 12,3 7 4 11 6 E 1018,4 30 0 0,0
22.05.2017 05:00:00 11,1 7,4 9,9 15,1 12,3 8 5 11 6 E 1018,5 20 0 0,0
22.05.2017 04:00:00 10,7 7,4 9,2 15,2 12,3 8 4 11 6 E 1019,2 20 0 0,0
22.05.2017 03:00:00 11,5 7,8 9,2 15,4 12,3 8 4 11 6 E 1019,8 20 0 0,0
22.05.2017 02:00:00 11,1 7,8 9,3 15,5 12,3 8 5 14 7 E 1020,2 20 0 0,0
22.05.2017 01:00:00 11,6 8,3 10,1 15,6 12,3 10 6 12 6 E 1020,8 20 0 0,0
22.05.2017 00:00:00 12,9 9,0 10,4 15,7 12,3 7 4 13 7 E 1021,1 20 0 0,0
21.05.2017 23:00:00 13,7 9,3 12,5 15,8 12,3 10 5 12 7 E 1021,2 20 0 0,0
21.05.2017 22:00:00 15,0 9,8 13,2 15,8 12,3 7 4 11 6 E 1021,2 20 7 0,0
21.05.2017 21:00:00 17,7 9,3 17,7 15,7 12,3 8 4 16 9 ESE 1021,4 20 43 0,0
21.05.2017 20:00:00 19,2 9,1 20,6 15,7 12,3 11 6 22 12 E 1021,7 20 52 0,0
21.05.2017 19:00:00 19,1 9,0 20,8 15,6 12,3 14 8 29 16 E 1022,1 20 41 0,0
21.05.2017 18:00:00 20,1 9,0 20,7 15,4 12,3 9 5 28 15 ESE 1022,4 20 38 0,0
21.05.2017 17:00:00 19,3 8,9 21,2 15,1 12,3 13 7 26 14 SE 1023,3 40 20 0,0
21.05.2017 16:00:00 20,1 9,3 22,3 14,8 12,3 12 7 24 13 SE 1023,8 40 54 0,0
21.05.2017 15:00:00 19,7 9,3 22,7 14,6 12,3 14 8 27 14 SE 1024,3 30 42 0,0
21.05.2017 14:00:00 18,5 8,5 22,4 14,3 12,3 9 5 24 13 SE 1025,0 30 28 0,0
21.05.2017 13:00:00 18,3 9,9 22,4 14,1 12,3 7 4 27 14 SSE 1025,7 30 36 0,0
21.05.2017 12:00:00 17,3 10,2 22,8 13,9 12,3 10 5 27 15 SE 1026,1 30 55 0,0
21.05.2017 11:00:00 16,5 9,7 19,6 13,9 12,3 10 5 16 9 SE 1026,4 30 48 0,0
21.05.2017 10:00:00 14,8 11,0 16,6 13,9 12,3 7 4 13 7 ESE 1026,6 30 52 0,0
21.05.2017 09:00:00 11,5 10,4 14,1 13,9 12,3 6 3 9 5 SE 1026,6 15 55 0,0
21.05.2017 08:00:00 9,6 9,3 9,0 14,1 12,3 6 3 9 5 SE 1026,4 1,2 17 0,0
21.05.2017 07:00:00 8,1 7,7 7,0 14,2 12,3 5 3 6 3 SSE 1026,3 0,4 34 0,0
21.05.2017 06:00:00 8,1 7,5 8,0 14,4 12,3 6 3 11 6 ESE 1025,9 6 0 0,2
21.05.2017 05:00:00 9,1 8,5 8,4 14,4 12,3 7 4 9 5 SE 1025,6 9 0 0,0
21.05.2017 04:00:00 9,5 8,7 8,8 14,6 12,2 4 2 8 5 ESE 1025,6 4,9 0 0,0
21.05.2017 03:00:00 10,4 9,2 9,0 14,7 12,3 4 2 5 3 E 1025,7 15 0 0,0
21.05.2017 02:00:00 10,5 9,3 8,3 14,8 12,3 2 1 3 2 ENE 1025,8 20 0 0,0
21.05.2017 01:00:00 11,1 9,0 10,2 14,9 12,2 2 1 6 3 N 1025,7 20 0 0,0
21.05.2017 00:00:00 11,8 10,0 11,7 15,0 12,2 4 2 11 6 NW 1025,3 20 0 0,0
20.05.2017 23:00:00 11,5 9,2 10,1 15,0 12,2 6 3 8 5 E 1025,1 20 0 0,0
20.05.2017 22:00:00 12,3 8,6 10,5 15,0 12,2 2 1 3 2 N 1024,5 20 11 0,0
20.05.2017 21:00:00 14,2 8,8 14,8 15,0 12,2 2 1 10 6 WNW 1024,0 20 60 0,0
20.05.2017 20:00:00 14,5 9,3 15,4 14,9 12,2 5 3 13 7 W 1023,7 20 32 0,0
20.05.2017 19:00:00 13,6 9,4 13,8 14,7 12,2 10 6 27 14 W 1023,3 20 22 0,0
20.05.2017 18:00:00 15,3 9,6 13,5 14,6 12,2 6 3 16 9 WNW 1022,7 20 47 0,2
20.05.2017 17:00:00 12,8 9,2 13,2 14,5 12,2 16 9 24 13 W 1023,0 20 8 0,8
20.05.2017 16:00:00 14,7 9,1 19,4 14,4 12,2 10 6 19 11 WNW 1022,2 30 28 0,0
20.05.2017 15:00:00 13,2 9,1 13,5 14,3 12,2 9 5 39 21 W 1022,0 20 5 0,0
20.05.2017 14:00:00 14,5 6,8 16,5 14,2 12,2 10 6 22 12 WSW 1021,4 20 8 0,0
20.05.2017 13:00:00 14,4 6,7 17,5 14,0 12,2 13 7 27 14 WSW 1021,0 30 11 0,0
20.05.2017 12:00:00 15,3 7,6 15,9 13,9 12,2 13 7 26 14 SSW 1020,6 30 31 0,0
20.05.2017 11:00:00 13,2 7,6 15,5 13,9 12,2 12 6 26 14 SW 1020,2 30 28 0,0
20.05.2017 10:00:00 12,3 8,2 14,8 13,9 12,2 13 7 22 12 SW 1019,7 20 31 0,0
20.05.2017 09:00:00 11,6 8,6 14,3 14,0 12,2 11 6 19 10 SW 1019,1 20 57 0,0
20.05.2017 08:00:00 9,7 8,1 9,2 14,1 12,1 8 4 14 8 S 1018,5 20 19 0,0
20.05.2017 07:00:00 8,5 7,9 7,8 14,3 12,1 8 4 12 6 S 1017,9 15 18 0,2
20.05.2017 06:00:00 8,5 7,7 8,1 14,4 12,1 7 4 12 7 S 1017,2 15 0 0,0
20.05.2017 05:00:00 8,7 7,9 8,1 14,5 12,2 8 5 14 8 S 1017,0 20 0 0,0
20.05.2017 04:00:00 8,9 8,1 8,4 14,7 12,2 8 4 12 6 S 1016,9 20 0 0,0
20.05.2017 03:00:00 9,5 8,6 9,5 14,7 12,1 7 4 14 7 S 1016,7 17 0 0,0
20.05.2017 02:00:00 9,9 8,7 9,7 14,9 12,1 5 3 11 6 S 1016,6 19 0 0,4
20.05.2017 01:00:00 10,0 7,8 9,7 15,0 12,1 4 2 8 5 S 1016,5 20 0 0,0
20.05.2017 00:00:00 9,9 7,8 9,4 15,1 12,1 5 3 11 6 SSW 1016,2 20 0 0,0
19.05.2017 23:00:00 11,2 8,8 10,8 15,1 12,1 4 2 10 6 S 1016,2 20 0 0,0
19.05.2017 22:00:00 11,2 7,5 10,2 15,2 12,1 6 3 9 5 SW 1015,9 20 10 0,0
19.05.2017 21:00:00 12,6 7,3 13,4 15,1 12,1 6 3 14 8 W 1015,3 20 60 0,0
19.05.2017 20:00:00 12,8 7,0 14,6 15,1 12,1 11 6 31 17 W 1015,0 20 31 0,0
19.05.2017 19:00:00 14,1 7,4 18,6 15,0 12,0 16 9 26 14 W 1014,4 20 58 0,0
19.05.2017 18:00:00 13,7 7,7 17,2 14,9 12,0 17 9 27 15 WNW 1014,4 20 43 0,0
19.05.2017 17:00:00 13,3 7,3 15,8 14,7 12,0 19 10 36 19 W 1014,4 25 21 0,0
19.05.2017 16:00:00 14,7 8,4 18,5 14,6 12,0 21 12 38 20 W 1014,0 18 52 0,0
19.05.2017 15:00:00 14,4 8,3 17,6 14,5 12,0 22 12 36 19 W 1013,9 25 15 0,0
19.05.2017 14:00:00 13,5 6,6 16,2 14,3 12,0 20 11 37 20 W 1014,1 25 12 0,0
19.05.2017 13:00:00 14,5 8,2 18,8 14,2 12,0 25 14 39 21 W 1013,9 20 51 0,0
19.05.2017 12:00:00 13,9 8,1 16,8 14,1 12,0 24 13 42 23 W 1013,5 30 26 0,0
19.05.2017 11:00:00 13,5 7,7 16,6 14,2 12,0 27 15 41 22 W 1013,1 25 48 0,0
19.05.2017 10:00:00 12,2 8,8 14,1 14,2 12,0 23 12 36 19 W 1012,8 20 29 0,0
19.05.2017 09:00:00 12,0 9,6 13,0 14,3 12,0 18 10 31 17 W 1012,3 18 16 0,0
19.05.2017 08:00:00 10,6 9,5 11,6 14,4 12,0 8 4 18 10 SW 1011,9 18 0 0,0

tt = Température de l'air
td = dewpoint
tt 5cm = Température de l'air 5cm
tt -20cm = Température de l'air -20cm
tt -100cm = Température de l'air -100cm
ff = Vitesse du vent
fx = gusts
dd = Direction du vent
ppp = reduced air pressure
vv = visibility
sd = Ensoleillement
rr = Quantités de précipitations

stations d'obs. à proximité